Location: Julian California
(33.0790°N, 116.6010°W)
Time: 16:01:20
(UTC-07:00)

Envisat - Pass Details

Date: 14 June 2018
Orbit: 764 x 766 km, 98.2° (Epoch: 20 June)

Event Time Altitude Azimuth Distance (km) Brightness Sun altitude
Rises 20:19:08 0° 174° (S) 3,212 5.9 -4.9°
Reaches altitude 10° 20:21:26 10° 177° (S) 2,289 5.1 -5.3°
Maximum altitude 20:26:27 65° 259° (WSW) 838 3.5 -6.2°
Drops below altitude 10° 20:31:29 10° 341° (NNW) 2,302 6.4 -7.1°
Sets 20:33:49 0° 344° (NNW) 3,232 7.1 -7.5°
